Redmond, OR

3:36 PM PST on November 14, 2019 (GMT -0800)
Roberts Field Airport

Weather History for KRDM - August, 2019

Change the Weather History Date:

Saturday, August 31, 2019

  Actual Average Record
Temperature  
Mean Temperature 71 °F 62 °F  
Max Temperature 92 °F 81 °F 100 °F (1967)
Min Temperature 49 °F 42 °F 28 °F (2006)
Degree Days  
Heating Degree Days 0 5  
Month to date heating degree days 14 81  
Since 1 June heating degree days 196 366  
Since 1 July heating degree days 47 149  
Cooling Degree Days 6 1  
Month to date cooling degree days 150 80  
Year to date cooling degree days 256 206  
Since 1 June cooling degree days 256 201  
Growing Degree Days 22 (Base 50)    
Moisture  
Dew Point 47 °F    
Average Humidity 54    
Maximum Humidity 89    
Minimum Humidity 19    
Precipitation  
Precipitation 0.00 in 0.02 in 0.23 in (1983)
Month to date precipitation T 0.50  
Year to date precipitation 7.46 5.73  
Sea Level Pressure  
Sea Level Pressure 29.93 in    
Wind  
Wind Speed 6 mph (NW)    
Max Wind Speed 18 mph    
Max Gust Speed 23 mph    
Visibility 10 miles    
Events      
T = Trace of Precipitation, MM = Missing Value Source: NWS Daily Summary

Daily Weather History Graph

Daily Weather History Graph

Search for Another Location

Airport or City:

Astronomy

Aug. 31, 2019 Rise Set
Actual Time 6:26 AM PDT 7:42 PM PDT
Civil Twilight 5:56 AM PDT 8:12 PM PDT
Nautical Twilight 5:20 AM PDT 8:48 PM PDT
Astronomical Twilight 4:41 AM PDT 9:26 PM PDT
Moon 7:50 AM PDT (8/31) 8:55 PM PDT (8/31)
Length of Visible Light 14h 16m
Length of Day
13h 16m
Waxing Crescent, 3% of the Moon is Illuminated
Aug 31
Waxing Crescent
Sep 5
First Quarter
Sep 13
Full
Sep 21
Last Quarter
Sep 28
New

Hourly Weather History & Observations

Time (PDT) Temp. Dew Point Humidity Pressure Visibility Wind Dir Wind Speed Gust Speed Precip Events Conditions
12:56 AM 64.9 °F 50.0 °F 58% 29.97 in 10.0 mi SW 3.5 mph - N/A   Clear
1:56 AM 60.1 °F 48.9 °F 67% 29.97 in 10.0 mi SSE 4.6 mph - N/A   Clear
2:56 AM 60.1 °F 50.0 °F 69% 29.96 in 10.0 mi Calm Calm - N/A   Clear
3:56 AM 57.0 °F 48.9 °F 74% 29.96 in 10.0 mi Calm Calm - N/A   Clear
4:56 AM 53.1 °F 46.9 °F 80% 29.97 in 10.0 mi SE 4.6 mph - N/A   Clear
5:56 AM 52.0 °F 48.0 °F 86% 29.98 in 10.0 mi Calm Calm - N/A   Clear
6:56 AM 55.0 °F 50.0 °F 83% 29.98 in 10.0 mi SE 4.6 mph - N/A   Clear
7:56 AM 62.1 °F 51.1 °F 67% 29.99 in 10.0 mi SE 5.8 mph - N/A   Clear
8:56 AM 69.1 °F 52.0 °F 54% 29.98 in 10.0 mi SE 3.5 mph - N/A   Clear
9:56 AM 75.0 °F 52.0 °F 44% 29.97 in 10.0 mi North 3.5 mph - N/A   Clear
10:56 AM 80.1 °F 48.9 °F 34% 29.94 in 10.0 mi WSW 3.5 mph - N/A   Clear
11:56 AM 84.0 °F 48.0 °F 28% 29.94 in 10.0 mi Variable 3.5 mph - N/A   Clear
12:56 PM 86.0 °F 46.9 °F 26% 29.91 in 10.0 mi North - - N/A   Clear
1:56 PM 89.1 °F 46.0 °F 22% 29.90 in 10.0 mi NNW 12.7 mph - N/A   Clear
2:56 PM 91.0 °F 45.0 °F 20% 29.88 in 10.0 mi Variable 4.6 mph - N/A   Clear
3:56 PM 90.0 °F 43.0 °F 19% 29.87 in 10.0 mi West 8.1 mph 17.3 mph N/A   Clear
4:56 PM 90.0 °F 43.0 °F 19% 29.88 in 10.0 mi NNW 12.7 mph - N/A   Clear
5:56 PM 88.0 °F 42.1 °F 20% 29.88 in 10.0 mi North 15.0 mph - N/A   Clear
6:56 PM 84.0 °F 44.1 °F 25% 29.89 in 10.0 mi NW 11.5 mph - N/A   Clear
7:56 PM 79.0 °F 45.0 °F 30% 29.90 in 10.0 mi NW 12.7 mph - N/A   Clear
8:56 PM 75.0 °F 45.0 °F 34% 29.91 in 10.0 mi NW 8.1 mph - N/A   Clear
9:56 PM 70.0 °F 45.0 °F 41% 29.93 in 10.0 mi North 3.5 mph - N/A   Clear
10:56 PM 70.0 °F 46.0 °F 42% 29.93 in 10.0 mi WNW 6.9 mph - N/A   Clear
11:56 PM 66.9 °F 46.0 °F 47% 29.92 in 10.0 mi WNW 8.1 mph - N/A   Clear